Track FLOCK 4V 12 now! 10-day predictions FLOCK 4V 12 is classified as:
1 46283U 20061M 22143.45960078 .00012889 00000-0 71667-3 0 9991 2 46283 97.4505 214.2673 0003095 18.9163 341.2183 15.13805113 94716